TimeCST,TemperatureF,Dew PointF,Humidity,Sea Level PressureIn,VisibilityMPH,Wind Direction,Wind SpeedMPH,Gust SpeedMPH,PrecipitationIn,Events,Conditions,WindDirDegrees,DateUTC
12:53 AM,30.0,26.1,85,30.19,10.0,Calm,Calm,-,N/A,,Clear,0,2013-03-04 06:53:00
1:53 AM,28.9,25.0,85,30.18,9.0,Calm,Calm,-,N/A,,Clear,0,2013-03-04 07:53:00
2:53 AM,28.0,25.0,88,30.18,10.0,Calm,Calm,-,N/A,,Clear,0,2013-03-04 08:53:00
3:53 AM,28.9,25.0,85,30.16,10.0,Calm,Calm,-,N/A,,Clear,0,2013-03-04 09:53:00
4:53 AM,28.0,25.0,88,30.18,10.0,Calm,Calm,-,N/A,,Clear,0,2013-03-04 10:53:00
5:53 AM,28.0,25.0,88,30.19,10.0,Calm,Calm,-,N/A,,Clear,0,2013-03-04 11:53:00
6:53 AM,32.0,28.0,85,30.20,10.0,Calm,Calm,-,N/A,,Clear,0,2013-03-04 12:53:00
7:53 AM,41.0,30.0,65,30.23,10.0,Calm,Calm,-,N/A,,Clear,0,2013-03-04 13:53:00
8:53 AM,51.1,27.0,39,30.23,10.0,Calm,Calm,-,N/A,,Clear,0,2013-03-04 14:53:00
9:53 AM,57.0,19.9,24,30.22,10.0,South,5.8,-,N/A,,Clear,180,2013-03-04 15:53:00
10:53 AM,60.1,21.9,23,30.21,10.0,South,6.9,16.1,0.00,Rain,Light Rain,180,2013-03-04 16:53:00
11:53 AM,63.0,28.0,27,30.19,10.0,South,12.7,17.3,0.00,,Clear,190,2013-03-04 17:53:00
12:53 PM,63.0,37.0,38,30.16,10.0,South,13.8,19.6,0.00,Rain,Light Rain,190,2013-03-04 18:53:00
1:53 PM,63.0,39.9,43,30.12,10.0,SSE,9.2,16.1,0.00,Rain,Light Rain,160,2013-03-04 19:53:00
2:53 PM,62.1,43.0,50,30.12,10.0,South,11.5,19.6,0.00,,Clear,190,2013-03-04 20:53:00
3:53 PM,61.0,44.1,54,30.12,10.0,South,12.7,17.3,0.00,,Partly Cloudy,180,2013-03-04 21:53:00
4:53 PM,57.9,45.0,62,30.12,10.0,South,8.1,-,N/A,,Mostly Cloudy,170,2013-03-04 22:53:00
5:53 PM,55.9,45.0,67,30.12,10.0,SE,6.9,-,N/A,,Scattered Clouds,140,2013-03-04 23:53:00
6:53 PM,52.0,43.0,71,30.11,10.0,ESE,4.6,-,N/A,,Clear,120,2013-03-05 00:53:00
7:53 PM,52.0,43.0,71,30.10,10.0,SE,3.5,-,N/A,,Mostly Cloudy,130,2013-03-05 01:53:00
8:53 PM,52.0,44.1,74,30.08,9.0,Variable,5.8,-,N/A,,Partly Cloudy,0,2013-03-05 02:53:00
9:53 PM,51.1,45.0,80,30.08,10.0,ESE,3.5,-,N/A,,Scattered Clouds,110,2013-03-05 03:53:00
10:29 PM,51.8,44.6,76,30.07,10.0,ESE,4.6,-,N/A,,Mostly Cloudy,120,2013-03-05 04:29:00
10:37 PM,51.8,44.6,76,30.07,10.0,ESE,4.6,-,N/A,,Mostly Cloudy,120,2013-03-05 04:37:00
10:49 PM,53.6,46.4,77,30.06,10.0,Calm,Calm,-,N/A,,Mostly Cloudy,0,2013-03-05 04:49:00
10:53 PM,53.1,46.0,77,30.06,10.0,ESE,3.5,-,N/A,,Overcast,120,2013-03-05 04:53:00
11:24 PM,53.6,46.4,77,30.05,10.0,Calm,Calm,-,N/A,,Mostly Cloudy,0,2013-03-05 05:24:00
11:53 PM,52.0,46.9,83,30.04,10.0,SE,4.6,-,N/A,,Scattered Clouds,140,2013-03-05 05:53:00